| time (UTC) | temp F | wind direction | speed MPH | gust MPH | rain 1hr in | rain 24hr in | rain mn in | humidity % | barometer mb |
| 20260503012504 | 53 | 197 | 1.0 | 6.0 | 0.00 | 0.00 | 0.00 | 85 | 1008.0 |
| 20260503012005 | 53 | 97 | 1.0 | 5.0 | 0.00 | 0.00 | 0.00 | 85 | 1008.0 |
| 20260503011504 | 53 | 166 | 2.0 | 7.0 | 0.00 | 0.00 | 0.00 | 85 | 1008.0 |
| 20260503011005 | 54 | 185 | 3.0 | 7.0 | 0.00 | 0.00 | 0.00 | 84 | 1009.0 |
| 20260503010504 | 54 | 186 | 3.0 | 7.0 | 0.00 | 0.00 | 0.00 | 83 | 1009.0 |
| 20260503010005 | 54 | 182 | 2.0 | 5.0 | 0.00 | 0.00 | 0.00 | 83 | 1009.0 |
| 20260503005504 | 54 | 197 | 1.0 | 3.0 | 0.00 | 0.00 | 0.00 | 83 | 1009.0 |
| 20260503005005 | 54 | 195 | 1.0 | 4.0 | 0.00 | 0.00 | 0.00 | 83 | 1009.0 |
| 20260503004504 | 55 | 185 | 1.0 | 5.0 | 0.00 | 0.00 | 0.00 | 83 | 1009.0 |
| 20260503004005 | 55 | 186 | 2.0 | 5.0 | 0.00 | 0.00 | 0.00 | 84 | 1009.0 |
| 20260503003504 | 55 | 186 | 2.0 | 5.0 | 0.00 | 0.00 | 0.00 | 84 | 1009.0 |
| 20260503003005 | 55 | 196 | 2.0 | 5.0 | 0.00 | 0.00 | 0.00 | 84 | 1009.0 |
| 20260503002505 | 55 | 203 | 3.0 | 7.0 | 0.00 | 0.00 | 0.00 | 84 | 1010.0 |
| 20260503002005 | 55 | 200 | 4.0 | 8.0 | 0.00 | 0.00 | 0.00 | 84 | 1010.0 |
| 20260503001505 | 55 | 197 | 5.0 | 8.0 | 0.00 | 0.00 | 0.00 | 85 | 1010.0 |
| 20260503000504 | 56 | 196 | 5.0 | 10.0 | 0.00 | 0.00 | 0.00 | 85 | 1010.0 |
| 20260503000004 | 56 | 194 | 5.0 | 10.0 | 0.00 | 0.00 | 0.00 | 85 | 1010.0 |
| 20260502235504 | 56 | 197 | 5.0 | 10.0 | 0.00 | 0.00 | 0.00 | 85 | 1011.0 |
| 20260502235005 | 56 | 206 | 4.0 | 9.0 | 0.00 | 0.00 | 0.00 | 85 | 1011.0 |
| 20260502234505 | 56 | 216 | 2.0 | 6.0 | 0.00 | 0.00 | 0.00 | 85 | 1011.0 |
| 20260502232504 | 56 | 0 | 0.0 | 0.0 | 0.00 | 0.00 | 0.00 | 84 | 1010.0 |
| 20260502232005 | 56 | 0 | 0.0 | 0.0 | 0.00 | 0.00 | 0.00 | 83 | 1010.0 |
| 20260502231505 | 56 | 302 | 0.0 | 3.0 | 0.00 | 0.00 | 0.00 | 84 | 1010.0 |
| 20260502231004 | 56 | 302 | 0.0 | 3.0 | 0.00 | 0.00 | 0.00 | 83 | 1010.0 |
| 20260502230505 | 56 | 0 | 0.0 | 0.0 | 0.00 | 0.00 | 0.00 | 83 | 1010.0 |
| 20260502230004 | 56 | 0 | 0.0 | 0.0 | 0.00 | 0.00 | 0.00 | 84 | 1010.0 |
| 20260502225505 | 56 | 0 | 0.0 | 0.0 | 0.00 | 0.00 | 0.00 | 84 | 1010.0 |
| 20260502225004 | 56 | 0 | 0.0 | 0.0 | 0.00 | 0.00 | 0.00 | 83 | 1010.0 |
| 20260502223504 | 56 | 0 | 0.0 | 0.0 | 0.00 | 0.00 | 0.00 | 82 | 1010.0 |
| 20260502222504 | 56 | 0 | 0.0 | 0.0 | 0.00 | 0.00 | 0.00 | 84 | 1011.0 |
| 20260502222005 | 56 | 0 | 0.0 | 0.0 | 0.00 | 0.00 | 0.00 | 83 | 1011.0 |
| 20260502221504 | 56 | 0 | 0.0 | 0.0 | 0.00 | 0.00 | 0.00 | 82 | 1011.0 |
| 20260502221005 | 56 | 0 | 0.0 | 0.0 | 0.00 | 0.00 | 0.00 | 83 | 1010.0 |
| 20260502220506 | 56 | 0 | 0.0 | 0.0 | 0.00 | 0.00 | 0.00 | 83 | 1010.0 |
| 20260502215505 | 56 | 158 | 0.0 | 4.0 | 0.00 | 0.00 | 0.00 | 79 | 1009.0 |
| 20260502215004 | 56 | 158 | 0.0 | 4.0 | 0.00 | 0.00 | 0.00 | 80 | 1009.0 |
| 20260502214506 | 57 | 0 | 0.0 | 0.0 | 0.00 | 0.00 | 0.00 | 78 | 1009.0 |
| 20260502214005 | 57 | 0 | 0.0 | 0.0 | 0.00 | 0.00 | 0.00 | 75 | 1010.0 |
| 20260502213504 | 57 | 0 | 0.0 | 0.0 | 0.00 | 0.00 | 0.00 | 74 | 1010.0 |
| 20260502213005 | 57 | 248 | 0.0 | 2.0 | 0.00 | 0.00 | 0.00 | 73 | 1010.0 |
| 20260502212504 | 57 | 248 | 0.0 | 2.0 | 0.00 | 0.00 | 0.00 | 72 | 1010.0 |
| 20260502212005 | 57 | 0 | 0.0 | 0.0 | 0.00 | 0.00 | 0.00 | 71 | 1010.0 |
| 20260502211505 | 57 | 0 | 0.0 | 0.0 | 0.00 | 0.00 | 0.00 | 70 | 1010.0 |
| 20260502210504 | 57 | 158 | 0.0 | 1.0 | 0.00 | 0.00 | 0.00 | 69 | 1010.0 |
| 20260502210006 | 57 | 0 | 0.0 | 0.0 | 0.00 | 0.00 | 0.00 | 68 | 1010.0 |
| 20260502205504 | 57 | 0 | 0.0 | 0.0 | 0.00 | 0.00 | 0.00 | 68 | 1010.0 |
| 20260502205005 | 57 | 285 | 0.0 | 2.0 | 0.00 | 0.00 | 0.00 | 67 | 1010.0 |
| 20260502204504 | 57 | 285 | 0.0 | 2.0 | 0.00 | 0.00 | 0.00 | 67 | 1010.0 |
| 20260502204005 | 57 | 225 | 0.0 | 1.0 | 0.00 | 0.00 | 0.00 | 67 | 1010.0 |
| 20260502203505 | 57 | 240 | 1.0 | 5.0 | 0.00 | 0.00 | 0.00 | 66 | 1010.0 |
| 20260502203004 | 57 | 255 | 3.0 | 8.0 | 0.00 | 0.00 | 0.00 | 66 | 1010.0 |
| 20260502202004 | 57 | 262 | 0.0 | 4.0 | 0.00 | 0.00 | 0.00 | 65 | 1010.0 |
| 20260502201505 | 57 | 252 | 1.0 | 5.0 | 0.00 | 0.00 | 0.00 | 64 | 1010.0 |
| 20260502200506 | 58 | 240 | 4.0 | 6.0 | 0.00 | 0.00 | 0.00 | 64 | 1010.0 |
| 20260502195505 | 58 | 234 | 4.0 | 6.0 | 0.00 | 0.00 | 0.00 | 64 | 1010.0 |
| 20260502195004 | 58 | 237 | 4.0 | 8.0 | 0.00 | 0.00 | 0.00 | 63 | 1010.0 |
| 20260502194505 | 59 | 233 | 6.0 | 10.0 | 0.00 | 0.00 | 0.00 | 63 | 1010.0 |
| 20260502194005 | 59 | 235 | 6.0 | 10.0 | 0.00 | 0.00 | 0.00 | 62 | 1010.0 |
| 20260502193504 | 60 | 241 | 7.0 | 15.0 | 0.00 | 0.00 | 0.00 | 62 | 1010.0 |
| 20260502193005 | 60 | 245 | 8.0 | 15.0 | 0.00 | 0.00 | 0.00 | 62 | 1010.0 |
| 20260502192505 | 61 | 241 | 8.0 | 16.0 | 0.00 | 0.00 | 0.00 | 61 | 1009.0 |
| 20260502192004 | 61 | 238 | 9.0 | 16.0 | 0.00 | 0.00 | 0.00 | 58 | 1009.0 |
| 20260502191504 | 61 | 237 | 9.0 | 15.0 | 0.00 | 0.00 | 0.00 | 56 | 1009.0 |
| 20260502191005 | 62 | 215 | 11.0 | 22.0 | 0.00 | 0.00 | 0.00 | 55 | 1010.0 |
| 20260502190504 | 62 | 207 | 11.0 | 22.0 | 0.00 | 0.00 | 0.00 | 55 | 1010.0 |
| 20260502190005 | 62 | 216 | 10.0 | 19.0 | 0.00 | 0.00 | 0.00 | 56 | 1010.0 |
| 20260502185506 | 62 | 218 | 10.0 | 15.0 | 0.00 | 0.00 | 0.00 | 56 | 1009.0 |
| 20260502184505 | 62 | 217 | 11.0 | 18.0 | 0.00 | 0.00 | 0.00 | 55 | 1009.0 |
| 20260502184006 | 63 | 210 | 11.0 | 18.0 | 0.00 | 0.00 | 0.00 | 55 | 1009.0 |
| 20260502183504 | 63 | 208 | 11.0 | 18.0 | 0.00 | 0.00 | 0.00 | 55 | 1009.0 |
| 20260502183005 | 63 | 216 | 10.0 | 17.0 | 0.00 | 0.00 | 0.00 | 54 | 1009.0 |
| 20260502182504 | 63 | 211 | 10.0 | 17.0 | 0.00 | 0.00 | 0.00 | 54 | 1010.0 |
| 20260502182005 | 63 | 203 | 10.0 | 17.0 | 0.00 | 0.00 | 0.00 | 53 | 1010.0 |
| 20260502181505 | 63 | 203 | 10.0 | 17.0 | 0.00 | 0.00 | 0.00 | 54 | 1010.0 |
| 20260502181006 | 63 | 202 | 9.0 | 15.0 | 0.00 | 0.00 | 0.00 | 54 | 1010.0 |
| 20260502170505 | 67 | 212 | 9.0 | 15.0 | 0.00 | 0.00 | 0.00 | 47 | 1011.0 |
| 20260502164005 | 69 | 229 | 10.0 | 18.0 | 0.00 | 0.00 | 0.00 | 44 | 1011.0 |
| 20260502163505 | 69 | 216 | 9.0 | 15.0 | 0.00 | 0.00 | 0.00 | 43 | 1011.0 |
| 20260502162504 | 69 | 216 | 7.0 | 16.0 | 0.00 | 0.00 | 0.00 | 43 | 1012.0 |
| 20260502162005 | 69 | 221 | 7.0 | 11.0 | 0.00 | 0.00 | 0.00 | 43 | 1012.0 |
| 20260502161504 | 70 | 220 | 8.0 | 13.0 | 0.00 | 0.00 | 0.00 | 42 | 1012.0 |
| 20260502161005 | 70 | 214 | 8.0 | 17.0 | 0.00 | 0.00 | 0.00 | 42 | 1012.0 |
| 20260502152006 | 70 | 221 | 8.0 | 14.0 | 0.00 | 0.00 | 0.00 | 42 | 1011.0 |
| 20260502151504 | 70 | 225 | 8.0 | 13.0 | 0.00 | 0.00 | 0.00 | 42 | 1011.0 |
| 20260502151005 | 70 | 229 | 8.0 | 12.0 | 0.00 | 0.00 | 0.00 | 41 | 1012.0 |
| 20260502150504 | 70 | 232 | 8.0 | 12.0 | 0.00 | 0.00 | 0.00 | 42 | 1012.0 |
| 20260502123506 | 69 | 211 | 8.0 | 15.0 | 0.00 | 0.00 | 0.00 | 48 | 1014.0 |
| 20260502123005 | 69 | 217 | 9.0 | 15.0 | 0.00 | 0.00 | 0.00 | 49 | 1014.0 |
| 20260502121504 | 69 | 211 | 8.0 | 15.0 | 0.00 | 0.00 | 0.00 | 48 | 1014.0 |
| 20260502121005 | 69 | 215 | 10.0 | 17.0 | 0.00 | 0.00 | 0.00 | 48 | 1015.0 |
| 20260502120505 | 69 | 218 | 9.0 | 17.0 | 0.00 | 0.00 | 0.00 | 48 | 1015.0 |
| 20260502115505 | 69 | 207 | 10.0 | 18.0 | 0.00 | 0.00 | 0.00 | 50 | 1015.0 |
| 20260502115005 | 69 | 207 | 10.0 | 18.0 | 0.00 | 0.00 | 0.00 | 48 | 1015.0 |
| 20260502114506 | 69 | 204 | 9.0 | 16.0 | 0.00 | 0.00 | 0.00 | 48 | 1015.0 |
| 20260502114005 | 69 | 205 | 9.0 | 18.0 | 0.00 | 0.00 | 0.00 | 49 | 1015.0 |
| 20260502113504 | 69 | 208 | 10.0 | 18.0 | 0.00 | 0.00 | 0.00 | 47 | 1015.0 |
| 20260502113006 | 69 | 206 | 9.0 | 17.0 | 0.00 | 0.00 | 0.00 | 47 | 1015.0 |
| 20260502112504 | 69 | 210 | 9.0 | 17.0 | 0.00 | 0.00 | 0.00 | 47 | 1015.0 |
| 20260502112005 | 69 | 215 | 10.0 | 19.0 | 0.00 | 0.00 | 0.00 | 46 | 1015.0 |
| 20260502111505 | 69 | 210 | 10.0 | 19.0 | 0.00 | 0.00 | 0.00 | 46 | 1015.0 |
| 20260502111006 | 69 | 208 | 9.0 | 15.0 | 0.00 | 0.00 | 0.00 | 46 | 1015.0 |
| 20260502110505 | 68 | 207 | 11.0 | 24.0 | 0.00 | 0.00 | 0.00 | 47 | 1015.0 |
| 20260502105506 | 68 | 212 | 10.0 | 19.0 | 0.00 | 0.00 | 0.00 | 45 | 1015.0 |
| 20260502104505 | 68 | 208 | 8.0 | 14.0 | 0.00 | 0.00 | 0.00 | 47 | 1015.0 |
| 20260502104006 | 68 | 207 | 9.0 | 20.0 | 0.00 | 0.00 | 0.00 | 47 | 1015.0 |
| 20260502103504 | 67 | 208 | 10.0 | 20.0 | 0.00 | 0.00 | 0.00 | 47 | 1015.0 |
| 20260502103004 | 67 | 209 | 10.0 | 18.0 | 0.00 | 0.00 | 0.00 | 47 | 1015.0 |
| 20260502102505 | 67 | 212 | 10.0 | 17.0 | 0.00 | 0.00 | 0.00 | 47 | 1016.0 |
| 20260502101504 | 67 | 215 | 10.0 | 19.0 | 0.00 | 0.00 | 0.00 | 46 | 1016.0 |
| 20260502101005 | 67 | 207 | 10.0 | 19.0 | 0.00 | 0.00 | 0.00 | 47 | 1016.0 |
| 20260502100504 | 67 | 211 | 11.0 | 17.0 | 0.00 | 0.00 | 0.00 | 47 | 1016.0 |
| 20260502091504 | 67 | 200 | 9.0 | 17.0 | 0.00 | 0.00 | 0.00 | 47 | 1016.0 |
| 20260502091004 | 67 | 199 | 9.0 | 15.0 | 0.00 | 0.00 | 0.00 | 47 | 1015.0 |
| 20260502090506 | 66 | 196 | 10.0 | 22.0 | 0.00 | 0.00 | 0.00 | 47 | 1015.0 |
| 20260502071504 | 63 | 189 | 8.0 | 14.0 | 0.00 | 0.00 | 0.00 | 52 | 1016.0 |
| 20260502071005 | 63 | 178 | 8.0 | 14.0 | 0.00 | 0.00 | 0.00 | 52 | 1016.0 |
| 20260502070504 | 63 | 190 | 8.0 | 11.0 | 0.00 | 0.00 | 0.00 | 52 | 1016.0 |
| 20260502065005 | 62 | 186 | 8.0 | 16.0 | 0.00 | 0.00 | 0.00 | 54 | 1017.0 |
| 20260502064505 | 61 | 186 | 7.0 | 14.0 | 0.00 | 0.00 | 0.00 | 56 | 1017.0 |
| 20260502063504 | 61 | 195 | 9.0 | 18.0 | 0.00 | 0.00 | 0.00 | 56 | 1017.0 |
| 20260502063004 | 60 | 191 | 8.0 | 14.0 | 0.00 | 0.00 | 0.00 | 56 | 1017.0 |
| 20260502062505 | 60 | 190 | 8.0 | 14.0 | 0.00 | 0.00 | 0.00 | 57 | 1017.0 |
| 20260502062005 | 60 | 188 | 8.0 | 14.0 | 0.00 | 0.00 | 0.00 | 58 | 1017.0 |
| 20260502061504 | 59 | 186 | 8.0 | 19.0 | 0.00 | 0.00 | 0.00 | 58 | 1017.0 |
| 20260502061004 | 59 | 188 | 9.0 | 19.0 | 0.00 | 0.00 | 0.00 | 59 | 1017.0 |
| 20260502060505 | 58 | 187 | 9.0 | 19.0 | 0.00 | 0.00 | 0.00 | 59 | 1017.0 |
| 20260502060005 | 58 | 198 | 8.0 | 13.0 | 0.00 | 0.00 | 0.00 | 60 | 1017.0 |
| 20260502054005 | 56 | 175 | 10.0 | 14.0 | 0.00 | 0.00 | 0.00 | 63 | 1017.0 |
| 20260502053505 | 55 | 174 | 10.0 | 15.0 | 0.00 | 0.00 | 0.00 | 63 | 1017.0 |
| 20260502053005 | 55 | 174 | 9.0 | 19.0 | 0.00 | 0.00 | 0.00 | 64 | 1017.0 |
| 20260502052505 | 54 | 169 | 9.0 | 19.0 | 0.00 | 0.00 | 0.00 | 65 | 1018.0 |
| 20260502052005 | 54 | 179 | 8.0 | 14.0 | 0.00 | 0.00 | 0.00 | 65 | 1018.0 |
| 20260502051504 | 54 | 185 | 6.0 | 13.0 | 0.00 | 0.00 | 0.00 | 65 | 1018.0 |
| 20260502051004 | 53 | 171 | 7.0 | 16.0 | 0.00 | 0.00 | 0.00 | 66 | 1018.0 |
| 20260502050504 | 53 | 171 | 9.0 | 16.0 | 0.00 | 0.00 | 0.00 | 66 | 1018.0 |
| 20260502050004 | 53 | 173 | 9.0 | 14.0 | 0.00 | 0.00 | 0.00 | 67 | 1018.0 |
| 20260502045505 | 52 | 171 | 9.0 | 14.0 | 0.00 | 0.00 | 0.00 | 68 | 1018.0 |
| 20260502044505 | 51 | 165 | 8.0 | 14.0 | 0.00 | 0.00 | 0.00 | 70 | 1018.0 |
| 20260502044005 | 51 | 155 | 8.0 | 14.0 | 0.00 | 0.00 | 0.00 | 71 | 1018.0 |
| 20260502043505 | 50 | 158 | 8.0 | 14.0 | 0.00 | 0.00 | 0.00 | 72 | 1018.0 |
| 20260502043005 | 49 | 153 | 8.0 | 13.0 | 0.00 | 0.00 | 0.00 | 74 | 1018.0 |
| 20260502042504 | 48 | 141 | 8.0 | 13.0 | 0.00 | 0.00 | 0.00 | 75 | 1018.0 |
| 20260502042004 | 48 | 138 | 7.0 | 10.0 | 0.00 | 0.00 | 0.00 | 76 | 1018.0 |
| 20260502041005 | 46 | 125 | 7.0 | 12.0 | 0.00 | 0.00 | 0.00 | 77 | 1017.0 |
| 20260502040504 | 46 | 117 | 8.0 | 12.0 | 0.00 | 0.00 | 0.00 | 76 | 1017.0 |
| 20260502040005 | 46 | 112 | 8.0 | 10.0 | 0.00 | 0.00 | 0.00 | 76 | 1017.0 |
| 20260502035504 | 46 | 112 | 7.0 | 10.0 | 0.00 | 0.00 | 0.00 | 76 | 1018.0 |
| 20260502035006 | 46 | 116 | 6.0 | 8.0 | 0.00 | 0.00 | 0.00 | 76 | 1018.0 |
| 20260502034505 | 45 | 120 | 6.0 | 9.0 | 0.00 | 0.00 | 0.00 | 76 | 1018.0 |
| 20260502034005 | 45 | 117 | 7.0 | 9.0 | 0.00 | 0.00 | 0.00 | 76 | 1018.0 |
| 20260502033005 | 46 | 118 | 7.0 | 8.0 | 0.00 | 0.00 | 0.00 | 75 | 1018.0 |
| 20260502032505 | 46 | 121 | 6.0 | 9.0 | 0.00 | 0.00 | 0.00 | 75 | 1019.0 |
| 20260502032005 | 46 | 119 | 6.0 | 9.0 | 0.00 | 0.00 | 0.00 | 75 | 1019.0 |
| 20260502031504 | 46 | 115 | 6.0 | 8.0 | 0.00 | 0.00 | 0.00 | 74 | 1019.0 |
| 20260502030005 | 47 | 145 | 5.0 | 7.0 | 0.00 | 0.00 | 0.00 | 74 | 1019.0 |
| 20260502025504 | 47 | 152 | 5.0 | 7.0 | 0.00 | 0.00 | 0.00 | 74 | 1019.0 |
| 20260502023504 | 48 | 177 | 4.0 | 10.0 | 0.00 | 0.00 | 0.00 | 74 | 1019.0 |
| 20260502023006 | 48 | 182 | 4.0 | 10.0 | 0.00 | 0.00 | 0.00 | 75 | 1019.0 |
| 20260502022504 | 48 | 171 | 4.0 | 8.0 | 0.00 | 0.00 | 0.00 | 75 | 1019.0 |
| 20260502022005 | 48 | 167 | 3.0 | 8.0 | 0.00 | 0.00 | 0.00 | 75 | 1019.0 |
| 20260502021004 | 48 | 175 | 4.0 | 7.0 | 0.00 | 0.00 | 0.00 | 75 | 1020.0 |
| 20260502020504 | 47 | 174 | 5.0 | 9.0 | 0.00 | 0.00 | 0.00 | 76 | 1020.0 |
| 20260502020005 | 47 | 176 | 3.0 | 9.0 | 0.00 | 0.00 | 0.00 | 72 | 1020.0 |
| 20260502015505 | 48 | 183 | 2.0 | 6.0 | 0.00 | 0.00 | 0.00 | 71 | 1020.0 |
| 20260502015004 | 49 | 172 | 5.0 | 13.0 | 0.00 | 0.00 | 0.00 | 72 | 1020.0 |
| 20260502014005 | 49 | 173 | 6.0 | 10.0 | 0.00 | 0.00 | 0.00 | 73 | 1021.0 |
| 20260502013504 | 50 | 174 | 6.0 | 10.0 | 0.00 | 0.00 | 0.00 | 74 | 1021.0 |